Tracking 19794 objects as of 22-Jul-2019
HD Live streaming from Space Station
objects crossing your sky now

METEOR 2-17 DEB

Track METEOR 2-17 DEB now!
10-day predictions


NORAD ID: 35365
Int'l Code: 1988-005Z
Perigee: 928.0 km
Apogee: 929.7 km
Inclination: 82.5 °
Period: 103.5 minutes
Semi major axis: 7299 km
RCS: 0.0068 m2 (small)
Launch date: January 30, 1988
Source: Commonwealth of Independent States (former USSR) (CIS)
Launch site: PLESETSK MISSILE AND SPACE COMPLEX (PKMTR)

Note: This is SATELLITE DEBRIS
aabbcc
Your satellite tracking list
Your tracking list is empty




NASA's NSSDC Master Catalog

Two Line Element Set (TLE):
1 35365U 88005Z   19202.58416874 +.00000722 +00000-0 +55490-3 0  9997
2 35365 082.5224 146.6619 0001163 324.8542 159.0254 13.91963848268395
Source of the keplerian elements: AFSPC